YO8SKY Weather Reports


Display with metric or nautical units.
time (UTC)temp
F
wind
direction
speed
MPH
gust
MPH
rain 1hr
in
rain 24hr
in
rain mn
in
humidity
%
barometer
mb
20181120192017 29 135 1.0 5.0 0.00 0.00 0.00 99 1015.2
20181120183514 29 135 0.0 2.0 0.00 0.00 0.00 99 1014.9
20181120180806 29 135 0.0 4.0 0.00 0.00 0.00 99 1014.2
20181120175905 29 135 0.0 2.0 0.00 0.00 0.00 99 1014.0
20181120174105 29 180 0.0 2.0 0.00 0.00 0.00 99 1013.7
20181120171733 29 225 0.0 2.0 0.00 0.00 0.00 99 1013.6
20181120170304 29 135 0.0 2.0 0.00 0.00 0.00 99 1013.6
20181120164504 30 135 0.0 3.0 0.00 0.00 0.00 99 1013.0
20181120163604 30 158 0.0 2.0 0.00 0.00 0.00 99 1012.7
20181120162704 30 135 0.0 2.0 0.00 0.00 0.00 99 1012.8
20181120161804 30 90 0.0 2.0 0.00 0.00 0.00 99 1013.1
20181120160904 30 135 0.0 2.0 0.00 0.00 0.00 99 1013.4
20181120160004 30 135 0.0 2.0 0.00 0.00 0.00 99 1013.4
20181120155102 30 135 0.0 2.0 0.00 0.00 0.00 99 1013.4
20181120154157 30 135 0.0 2.0 0.00 0.00 0.00 99 1013.4
20181120152350 30 90 1.0 2.0 0.00 0.00 0.00 99 1012.6
20181120151448 30 180 0.0 2.0 0.00 0.00 0.00 99 1012.5
20181120145641 31 135 0.0 2.0 0.00 0.00 0.00 99 1012.1
20181120141155 32 180 0.0 2.0 0.00 0.00 0.00 99 1012.0
20181120134449 33 180 0.0 2.0 0.00 0.00 0.00 99 1011.3
20181120133549 33 135 0.0 2.0 0.00 0.00 0.00 99 1011.0
20181120111201 37 135 1.0 3.0 0.00 0.00 0.00 88 1011.8
20181120110302 36 90 0.0 5.0 0.00 0.00 0.00 86 1012.0
20181120105402 37 90 2.0 4.0 0.00 0.00 0.00 84 1012.2
20181120104502 38 135 1.0 3.0 0.00 0.00 0.00 83 1012.1
20181120100901 41 180 0.0 2.0 0.00 0.00 0.00 99 1014.5
20181120100001 39 158 1.0 2.0 0.00 0.00 0.00 99 1015.3
20181120094159 39 135 0.0 2.0 0.00 0.00 0.00 99 1015.1
20181120093259 38 135 0.0 2.0 0.00 0.00 0.00 99 1015.2
20181120092358 37 135 0.0 2.0 0.00 0.00 0.00 99 1015.1
20181120091458 37 135 1.0 2.0 0.00 0.00 0.00 99 1015.0
20181120090557 36 135 0.0 3.0 0.00 0.00 0.00 99 1015.0
20181120073543 31 360 3.0 7.0 0.00 0.00 0.00 99 1015.4
20181120072643 31 360 5.0 7.0 0.00 0.00 0.00 99 1015.4
20181120071743 31 315 2.0 6.0 0.00 0.00 0.00 99 1015.1
20181120070843 31 315 3.0 7.0 0.00 0.00 0.00 99 1014.9
20181120065043 31 360 4.0 6.0 0.00 0.00 0.00 99 1014.5
20181120064143 31 315 3.0 5.0 0.00 0.00 0.00 99 1014.2
20181120063243 31 360 2.0 4.0 0.00 0.00 0.00 99 1013.9